Location: Blandford
(50.8667°N, 2.1667°W)
Time: 00:54:41
(UTC+00:00)

BREEZE M DEB (TANK) - Pass Details

Date: 09 April 2020
Orbit: 303 x 11878 km, 49.5° (Epoch: 30 May)

Event Time Altitude Azimuth Distance (km) Brightness Sun altitude
Rises 19:19:01 0° 180° (S) 2,244 5.3 -4.5°
Reaches altitude 10° 19:21:19 10° 148° (SSE) 1,767 4.5 -4.8°
Maximum altitude 19:23:19 14° 115° (ESE) 1,931 4.4 -5.1°
Drops below altitude 10° 19:26:13 10° 86° (E) 2,848 5.4 -5.5°
Sets 19:32:32 0° 66° (ENE) 5,439 6.9 -6.5°
